[[{"header":{"parameterUnit":"m.s-1","parameterCategory":1,"la1":30.2991,"la2":30.254,"lo1":-89.0895,"lo2":-89.0444,"dy":0.0017,"dx":0.0017,"nx":28,"ny":28,"refTime":"2023-08-22T03:00:00:Z","depth":0,"parameterNumber":2,"parameterNumberName":"U-component_of_WINDS"},"data":[0,0,0,0,0,0,0,0,0,0,0,0,0,0,0,0,0,0,0,0,0,0,0,0,0,0,0,0,0,0,0,0,0,0,0,0,0,0,0,0,0,0,0,0,0,0,0,0,0,0,0,0,0,0,0,0,0,0,-2.5828,-2.5828,0,-2.581,-2.581,-2.581,-2.5662,-2.5658,-2.5654,-2.5651,-2.5636,-2.5639,-2.5642,0,0,0,0,0,0,0,0,0,0,0,0,0,-2.5736,-2.5738,-2.5828,-2.5828,-2.5828,-2.5811,-2.581,-2.581,-2.5662,-2.5658,-2.5653,-2.5649,-2.5635,-2.5638,-2.5642,0,0,0,0,0,0,0,0,0,0,0,0,0,-2.5753,-2.5739,-2.5828,-2.5752,-2.5745,-2.5811,-2.581,-2.581,-2.5663,-2.5658,-2.5652,-2.5647,-2.5634,-2.5638,-2.5642,-2.5781,0,0,-2.5656,-2.5658,0,0,0,0,0,0,0,0,-2.5752,-2.5757,-2.5763,-2.5757,-2.5749,-2.5732,-2.5772,-2.58,-2.5664,-2.5694,-2.5651,-2.5644,-2.5673,-2.5674,-2.5682,-2.5781,-2.578,-2.5657,-2.566,-2.5661,-2.5663,0,0,0,0,0,0,0,-2.5751,-2.5757,-2.5821,-2.5764,-2.5755,-2.5719,-2.5715,-2.5777,-2.5715,-2.5691,-2.568,-2.568,-2.5668,-2.5679,-2.5681,-2.578,-2.5657,-2.5661,-2.5664,-2.5665,-2.599,-2.5996,0,0,0,0,0,0,-2.576,-2.5757,-2.5822,-2.5821,-2.5737,-2.5725,-2.5721,-2.5744,-2.5714,-2.5704,-2.5685,-2.5673,-2.5673,-2.5676,-2.568,-2.584,-2.5661,-2.5666,-2.5668,-2.5984,-2.5991,-2.5998,0,0,0,0,0,0,-2.5759,-2.5768,-2.5822,-2.5786,-2.579,-2.5733,-2.5759,-2.5746,-2.5757,-2.5709,-2.5697,-2.5707,-2.5669,-2.5674,-2.5757,-2.5838,-2.5668,-2.5672,-2.5977,-2.5986,-2.5994,-2.6163,0,0,0,0,0,0,-2.5757,-2.5768,-2.582,-2.5788,-2.5792,-2.59,-2.5764,-2.575,-2.5765,-2.5749,-2.5727,-2.5718,-2.5665,-2.5751,-2.5761,-2.5841,-2.5675,-2.597,-2.5981,-2.5992,-2.615,-2.6176,-2.6199,0,0,0,0,0,-2.5754,-2.5869,-2.5823,-2.5832,-2.5856,-2.5905,-2.5907,-2.5844,-2.5772,-2.5824,-2.5793,-2.5718,-2.5827,-2.5761,-2.5771,-2.5854,-2.5964,-2.5978,-2.5991,-2.6139,-2.6171,-2.6198,0,0,0,0,0,0,-2.5913,-2.5863,-2.5812,-2.592,-2.5918,-2.5879,-2.5943,-2.588,-2.5899,-2.5884,-2.5805,-2.5801,-2.5897,-2.5883,-2.581,-2.5986,-2.5883,-2.5899,-2.5992,-2.6022,-2.6046,-2.6048,-2.5679,0,0,0,0,0,-2.5961,-2.6004,-2.5958,-2.6057,-2.6058,-2.6001,-2.602,-2.5971,-2.5966,-2.5965,-2.594,-2.5938,-2.5972,-2.5996,-2.6024,-2.6146,-2.614,-2.6208,-2.6233,-2.6253,-2.6269,-2.6332,-2.6362,-2.6041,-2.6041,-2.6041,0,0,-2.606,-2.6037,-2.607,-2.6088,-2.6081,-2.6128,-2.6002,-2.6057,-2.6091,-2.5973,-2.605,-2.6032,-2.6025,-2.6129,-2.6173,-2.612,-2.6355,-2.627,-2.6287,-2.6291,-2.6349,-2.6379,-2.6407,-2.605,-2.6049,-2.6047,0,0,-2.6264,-2.6251,-2.6332,-2.6327,-2.6316,-2.6277,-2.6297,-2.6268,-2.6251,-2.6327,-2.6239,-2.6279,-2.6338,-2.6337,-2.6344,-2.6547,-2.6479,-2.6558,-2.6687,-2.675,-2.6776,-2.6798,-2.687,-2.6897,-2.6573,-2.6573,-2.6574,0,-2.6388,-2.6455,-2.6382,-2.6443,-2.6454,-2.6348,-2.6429,-2.6428,-2.6428,-2.6439,-2.6379,-2.6451,-2.6439,-2.654,-2.659,-2.6599,-2.6619,-2.6561,-2.6777,-2.6799,-2.6818,-2.6887,-2.6915,-2.6583,-2.6582,-2.6581,-2.658,0,-2.6608,-2.6656,-2.6722,-2.6724,-2.6742,-2.6813,-2.6752,-2.678,-2.6729,-2.6696,-2.6775,-2.6756,-2.6779,-2.6799,-2.675,-2.6894,-2.6861,-2.6791,-2.6686,-2.686,-2.6923,-2.6949,-2.6597,-2.6594,-2.6591,-2.6588,0,0,-2.6914,-2.6873,-2.6899,-2.6898,-2.6878,-2.6913,-2.698,-2.7,-2.7026,-2.7029,-2.7083,-2.7135,-2.7069,-2.7078,-2.7028,-2.7083,-2.7245,-2.7005,-2.7004,-2.7051,-2.7403,-2.7457,-2.7488,-2.7199,-2.7204,-2.7208,-2.7403,0,-2.7111,-2.7221,-2.7157,-2.7277,-2.7319,-2.7218,-2.7276,-2.7271,-2.7242,-2.7275,-2.7242,-2.7281,-2.7191,-2.7195,-2.7246,-2.7215,-2.7315,-2.72,-2.725,-2.7253,-2.7256,-2.7521,-2.7578,-2.7764,-2.7428,-2.7432,-2.7435,0,-2.7355,-2.7368,-2.7492,-2.7462,-2.7478,-2.7531,-2.7544,-2.7576,-2.7568,-2.7543,-2.7552,-2.7488,-2.7552,-2.7447,-2.7534,-2.7457,-2.7474,-2.7462,-2.7467,-2.7471,-2.7355,-2.7533,-2.7821,-2.785,-2.7473,-2.747,-2.7467,0,-2.7567,-2.7614,-2.7694,-2.7696,-2.7664,-2.7704,-2.7693,-2.7678,-2.7695,-2.7707,-2.7716,-2.7737,-2.7748,-2.7765,-2.7709,-2.7638,-2.7804,-2.7694,-2.7786,-2.7787,-2.7826,-2.7825,-2.8123,-2.7836,-2.7835,-2.7835,-2.7834,0,-2.7794,-2.7874,-2.7789,-2.7838,-2.7925,-2.785,-2.7938,-2.7916,-2.7904,-2.7948,-2.7862,-2.7905,-2.7827,-2.7863,-2.7819,-2.7898,-2.7904,-2.7886,-2.7874,-2.7894,-2.7897,-2.7905,-2.7891,-2.7842,-2.784,-2.7839,-2.7838,0,-2.8046,-2.7991,-2.8072,-2.8034,-2.8026,-2.8092,-2.806,-2.8105,-2.8069,-2.8126,-2.8135,-2.808,-2.8117,-2.8062,-2.8094,-2.8064,-2.8173,-2.8141,-2.8176,-2.8167,-2.8262,-2.8254,-2.8577,-2.8616,-2.8303,-2.8306,-2.8309,0,-2.8195,-2.8253,-2.8221,-2.8244,-2.8237,-2.8275,-2.829,-2.8219,-2.8239,-2.8233,-2.8279,-2.8309,-2.8329,-2.8393,-2.8357,-2.8381,-2.8349,-2.846,-2.8352,-2.8371,-2.8352,-2.8349,-2.8355,-2.8483,-2.8487,-2.849,-2.8492,0,-2.8465,-2.8435,-2.846,-2.8477,-2.8497,-2.8507,-2.851,-2.8534,-2.8459,-2.8486,-2.8523,-2.8538,-2.857,-2.8601,-2.8615,-2.8604,-2.8537,-2.8526,-2.8549,-2.8572,-2.859,-2.8582,-2.8238,-2.852,-2.8517,-2.8515,-2.8514,-2.8512,-2.867,-2.8718,-2.8702,-2.8733,-2.8728,-2.8733,-2.8772,-2.8741,-2.877,-2.8789,-2.8745,-2.8793,-2.8782,-2.8794,-2.879,-2.8827,-2.8778,-2.8811,-2.8819,-2.8829,-2.8844,-2.8583,-2.8829,-2.8828,-2.8827,-2.8827,-2.8826,0,-2.8937,-2.8921,-2.895,-2.8957,-2.8982,-2.8914,-2.8914,-2.894,-2.8982,-2.8977,-2.8998,-2.904,-2.9069,-2.9035,-2.9058,-2.9094,-2.9064,-2.9102,-2.91,-2.9098,-2.8886,-2.8864,-2.9126,-2.9126,-2.9126,-2.9126,-2.9126,-2.9126,-2.9078,-2.9155,-2.9123,-2.9196,-2.918,-2.9225,-2.9231,-2.9235,-2.923,-2.9281,-2.9304,-2.928,-2.9264,-2.9285,-2.9309,-2.9298,-2.9311,-2.9361,-2.934,-2.9143,-2.9113,-2.9085,-2.9065,-2.9365,-2.9365,-2.9549,-2.9551,-2.9553]},{"header":{"parameterUnit":"m.s-1","parameterCategory":1,"la1":30.2991,"la2":30.254,"lo1":-89.0895,"lo2":-89.0444,"dy":0.0017,"dx":0.0017,"nx":28,"ny":28,"refTime":"2023-08-22T03:00:00:Z","depth":0,"parameterNumber":3,"parameterNumberName":"V-component_of_WINDS"},"data":[0,0,0,0,0,0,0,0,0,0,0,0,0,0,0,0,0,0,0,0,0,0,0,0,0,0,0,0,0,0,0,0,0,0,0,0,0,0,0,0,0,0,0,0,0,0,0,0,0,0,0,0,0,0,0,0,0,0,-1.3698,-1.3698,0,-1.3729,-1.3729,-1.3729,-1.3773,-1.3774,-1.3774,-1.3775,-1.3804,-1.3804,-1.3804,0,0,0,0,0,0,0,0,0,0,0,0,0,-1.3672,-1.3673,-1.3698,-1.3698,-1.3698,-1.3729,-1.3729,-1.3729,-1.3773,-1.3774,-1.3774,-1.3775,-1.3804,-1.3804,-1.3804,0,0,0,0,0,0,0,0,0,0,0,0,0,-1.3691,-1.3673,-1.3698,-1.3724,-1.3726,-1.3729,-1.3729,-1.373,-1.3772,-1.3774,-1.3775,-1.3776,-1.3804,-1.3804,-1.3804,-1.3782,0,0,-1.3804,-1.3805,0,0,0,0,0,0,0,0,-1.369,-1.3692,-1.3719,-1.3722,-1.3725,-1.3748,-1.3731,-1.3747,-1.3772,-1.3755,-1.3775,-1.3776,-1.3784,-1.3786,-1.3789,-1.3784,-1.3785,-1.3804,-1.3805,-1.3805,-1.3805,0,0,0,0,0,0,0,-1.3689,-1.3691,-1.371,-1.372,-1.3723,-1.3733,-1.3737,-1.3734,-1.3763,-1.3756,-1.376,-1.3763,-1.3786,-1.3789,-1.379,-1.3785,-1.3804,-1.3805,-1.3805,-1.3805,-1.3761,-1.376,0,0,0,0,0,0,-1.3684,-1.369,-1.3709,-1.3711,-1.371,-1.3732,-1.3737,-1.3739,-1.3763,-1.3768,-1.3762,-1.3765,-1.3788,-1.379,-1.3792,-1.3766,-1.3805,-1.3805,-1.3805,-1.3763,-1.3761,-1.376,0,0,0,0,0,0,-1.3683,-1.3685,-1.3708,-1.3701,-1.3705,-1.3732,-1.3734,-1.3739,-1.3743,-1.3767,-1.3772,-1.376,-1.3789,-1.3791,-1.3784,-1.3768,-1.3805,-1.3805,-1.3764,-1.3762,-1.3761,-1.3715,0,0,0,0,0,0,-1.3682,-1.3685,-1.3678,-1.3701,-1.3705,-1.37,-1.3733,-1.3739,-1.3743,-1.3747,-1.3767,-1.3771,-1.379,-1.3784,-1.3784,-1.3768,-1.3805,-1.3766,-1.3763,-1.3761,-1.3718,-1.3712,-1.3707,0,0,0,0,0,-1.3681,-1.3664,-1.3677,-1.3679,-1.3697,-1.3699,-1.3702,-1.3725,-1.3742,-1.3734,-1.3749,-1.377,-1.377,-1.3783,-1.3784,-1.3767,-1.3767,-1.3764,-1.3761,-1.3721,-1.3713,-1.3707,0,0,0,0,0,0,-1.3637,-1.3667,-1.3682,-1.3672,-1.3683,-1.3707,-1.3698,-1.3717,-1.3723,-1.3726,-1.3754,-1.3758,-1.3747,-1.3757,-1.3771,-1.3747,-1.3771,-1.3769,-1.374,-1.3733,-1.3728,-1.3724,-1.3805,0,0,0,0,0,-1.3626,-1.3627,-1.3653,-1.3641,-1.3646,-1.3671,-1.3673,-1.369,-1.3702,-1.3707,-1.3722,-1.3732,-1.3734,-1.3735,-1.3738,-1.3721,-1.3724,-1.371,-1.3704,-1.3699,-1.3696,-1.3685,-1.3679,-1.3751,-1.3751,-1.3751,0,0,-1.3603,-1.362,-1.3619,-1.3632,-1.3643,-1.3642,-1.3674,-1.3672,-1.3671,-1.3706,-1.37,-1.3711,-1.3724,-1.3711,-1.3706,-1.3719,-1.3677,-1.3696,-1.3692,-1.3691,-1.3682,-1.3675,-1.3669,-1.3749,-1.3749,-1.375,0,0,-1.3561,-1.3574,-1.3565,-1.3575,-1.3591,-1.3607,-1.3605,-1.3626,-1.3635,-1.363,-1.3655,-1.3654,-1.3658,-1.3665,-1.3669,-1.3629,-1.3648,-1.3629,-1.3598,-1.3588,-1.3582,-1.3577,-1.356,-1.3554,-1.3626,-1.3626,-1.3626,0,-1.353,-1.353,-1.3557,-1.3553,-1.3557,-1.359,-1.358,-1.3588,-1.3604,-1.3605,-1.362,-1.3624,-1.3635,-1.3623,-1.3613,-1.3617,-1.3613,-1.3626,-1.3581,-1.3576,-1.3572,-1.3556,-1.355,-1.3624,-1.3624,-1.3624,-1.3625,0,-1.3491,-1.349,-1.348,-1.3495,-1.3499,-1.3491,-1.3516,-1.3516,-1.3533,-1.3547,-1.354,-1.3555,-1.3561,-1.356,-1.3576,-1.355,-1.3557,-1.3576,-1.3601,-1.3562,-1.3548,-1.3542,-1.362,-1.3621,-1.3622,-1.3623,0,0,-1.342,-1.345,-1.3445,-1.3451,-1.3471,-1.3471,-1.3464,-1.3471,-1.3469,-1.3479,-1.3473,-1.3475,-1.3492,-1.3497,-1.3514,-1.3505,-1.3469,-1.3525,-1.3526,-1.3512,-1.3438,-1.3422,-1.3415,-1.3483,-1.3482,-1.3481,-1.3436,0,-1.3379,-1.337,-1.3394,-1.3379,-1.3377,-1.3408,-1.3402,-1.3413,-1.3426,-1.3426,-1.3441,-1.3441,-1.3465,-1.3468,-1.3461,-1.3475,-1.3454,-1.3479,-1.3475,-1.3474,-1.3468,-1.3408,-1.3391,-1.3348,-1.3431,-1.343,-1.343,0,-1.333,-1.3338,-1.3322,-1.3341,-1.3341,-1.3336,-1.3343,-1.3343,-1.3355,-1.3365,-1.337,-1.3391,-1.3384,-1.341,-1.34,-1.3416,-1.3416,-1.3423,-1.3422,-1.342,-1.3448,-1.3402,-1.3335,-1.3328,-1.3421,-1.3422,-1.3423,0,-1.3277,-1.3283,-1.3274,-1.3279,-1.3302,-1.3296,-1.3305,-1.3319,-1.3321,-1.3327,-1.3328,-1.3333,-1.3335,-1.3338,-1.3359,-1.3376,-1.3345,-1.3373,-1.3352,-1.3351,-1.3342,-1.3342,-1.3271,-1.3346,-1.3346,-1.3346,-1.3347,0,-1.3228,-1.3216,-1.325,-1.3244,-1.3232,-1.3259,-1.3246,-1.3258,-1.3269,-1.3265,-1.3293,-1.3288,-1.3317,-1.3315,-1.3332,-1.332,-1.3321,-1.3328,-1.3332,-1.3324,-1.3322,-1.3322,-1.3325,-1.3345,-1.3345,-1.3345,-1.3346,0,-1.3165,-1.3188,-1.318,-1.3202,-1.3207,-1.3197,-1.3215,-1.321,-1.3226,-1.322,-1.322,-1.3244,-1.3243,-1.3264,-1.3268,-1.3279,-1.3258,-1.3269,-1.3254,-1.3256,-1.3233,-1.3234,-1.3158,-1.3148,-1.3231,-1.323,-1.323,0,-1.3131,-1.3123,-1.3144,-1.3144,-1.3152,-1.3151,-1.3153,-1.3179,-1.318,-1.3193,-1.3185,-1.3187,-1.3189,-1.3186,-1.3202,-1.3205,-1.3214,-1.3187,-1.3214,-1.3206,-1.321,-1.3209,-1.3208,-1.3181,-1.318,-1.3179,-1.3178,0,-1.3067,-1.3078,-1.3081,-1.3086,-1.3088,-1.3094,-1.3101,-1.3099,-1.3128,-1.3127,-1.3126,-1.3128,-1.3132,-1.3132,-1.3137,-1.3145,-1.3165,-1.317,-1.3165,-1.3155,-1.3145,-1.3148,-1.3236,-1.3171,-1.3172,-1.3172,-1.3173,-1.3173,-1.3016,-1.3009,-1.3023,-1.3024,-1.3032,-1.3038,-1.3034,-1.3049,-1.3049,-1.3054,-1.307,-1.3066,-1.3077,-1.3087,-1.3093,-1.309,-1.3102,-1.3095,-1.3093,-1.309,-1.3085,-1.3148,-1.3091,-1.3091,-1.3092,-1.3092,-1.3092,0,-1.2951,-1.2961,-1.2962,-1.2971,-1.2971,-1.2992,-1.3001,-1.3,-1.2996,-1.3005,-1.3007,-1.3006,-1.3006,-1.3023,-1.3025,-1.3019,-1.3028,-1.3018,-1.3017,-1.3018,-1.3074,-1.3077,-1.301,-1.301,-1.301,-1.301,-1.301,-1.3011,-1.2917,-1.2906,-1.2918,-1.2911,-1.2922,-1.2919,-1.2922,-1.2927,-1.2934,-1.2931,-1.2932,-1.2943,-1.2955,-1.2958,-1.2959,-1.2963,-1.2962,-1.2948,-1.2956,-1.3007,-1.3015,-1.3022,-1.3025,-1.2948,-1.2948,-1.29,-1.2899,-1.2899]}]]